OE-3055 Weather Reports


time (UTC)temp
F
wind
direction
speed
knots
gust
knots
rain 1hr
in
rain 24hr
in
rain mn
in
humidity
%
barometer
mb
20260903071109 64 271 7.8 10.4 0.00 0.00 0.00 68 1023.4
20260903064108 63 270 7.0 11.3 0.00 0.00 0.00 72 1023.6
20260903061109 62 275 6.1 9.6 0.00 0.00 0.00 73 1023.7
20260903054108 62 274 7.0 11.3 0.00 0.00 0.00 73 1023.8
20260903051109 61 259 7.0 12.2 0.00 0.00 0.00 74 1022.8
20260903044108 61 261 7.8 12.2 0.00 0.00 0.00 73 1022.8
20260903041108 61 249 7.8 11.3 0.00 0.00 0.00 73 1022.8
20260903031109 62 261 7.8 13.0 0.00 0.00 0.00 72 1022.7
20260903021108 63 270 7.8 11.3 0.00 0.00 0.00 67 1022.5
20260903014108 64 266 9.6 13.0 0.00 0.00 0.00 64 1022.3
20260903011109 65 263 10.4 14.8 0.00 0.00 0.00 60 1022.1
20260903004109 66 266 8.7 15.6 0.00 0.00 0.00 58 1022.0
20260903001508 66 257 10.4 14.8 0.00 0.00 0.00 57 1021.9
20260902234109 66 248 9.6 13.0 0.00 0.00 0.00 58 1022.1
20260902224109 67 229 8.7 13.0 0.00 0.00 0.00 59 1021.8
20260902221109 67 192 6.1 7.8 0.00 0.00 0.00 60 1021.8
20260902214109 68 165 3.5 4.3 0.00 0.00 0.00 59 1021.7
20260902211109 68 143 3.5 3.5 0.00 0.00 0.00 58 1021.6
20260902204110 68 129 3.5 3.5 0.00 0.00 0.00 59 1021.6
20260902201109 68 117 3.5 4.3 0.00 0.00 0.00 59 1021.7
20260902194109 69 103 3.5 5.2 0.00 0.00 0.00 56 1021.6
20260902191109 69 77 3.5 4.3 0.00 0.00 0.00 55 1020.4
20260902184109 69 81 2.6 3.5 0.00 0.00 0.00 56 1020.4
20260902181109 69 56 3.5 5.2 0.00 0.00 0.00 59 1020.5
20260902174109 69 57 2.6 5.2 0.00 0.00 0.00 59 1020.4
20260902171109 72 59 0.9 2.6 0.00 0.00 0.00 56 1020.0
20260902164109 72 327 2.6 7.0 0.00 0.00 0.00 56 1020.0
20260902161109 72 289 3.5 7.0 0.00 0.00 0.00 54 1019.9
20260902154109 72 274 7.0 11.3 0.00 0.00 0.00 56 1020.0
20260902151109 72 293 6.1 11.3 0.00 0.00 0.00 55 1019.9
20260902144109 72 314 6.1 10.4 0.00 0.00 0.00 54 1019.9
20260902141109 72 300 5.2 11.3 0.00 0.00 0.00 55 1019.9
20260902134108 72 317 5.2 13.0 0.00 0.00 0.00 56 1020.0
20260902131109 72 336 3.5 7.8 0.00 0.00 0.00 58 1021.1
20260902124108 72 339 3.5 8.7 0.00 0.00 0.00 59 1021.0
20260902121109 72 335 3.5 7.8 0.00 0.00 0.00 59 1021.1
20260902114109 71 342 2.6 6.1 0.00 0.00 0.00 59 1021.1
20260902111109 72 330 3.5 7.0 0.00 0.00 0.00 60 1021.0
20260902104109 69 303 2.6 5.2 0.00 0.00 0.00 67 1021.5
20260902101109 70 168 1.7 5.2 0.00 0.00 0.00 62 1021.3
20260902094109 69 114 2.6 6.1 0.00 0.00 0.00 61 1021.5
20260902091108 66 302 2.6 4.3 0.00 0.00 0.00 70 1022.0
20260902084108 65 299 2.6 4.3 0.00 0.00 0.00 72 1022.2
20260902081108 65 186 3.5 6.1 0.00 0.00 0.00 71 1022.2
20260902074109 64 161 4.3 7.0 0.00 0.00 0.00 72 1022.4